Location: Boiro
(42.6475°N, 8.8834°W)
Time: 17:50:46
(UTC+01:00)

Transit 2A Rocket - Pass Details

Date: 01 December 2021
Orbit: 584 x 918 km, 66.7° (Epoch: 19 January)

Event Time Altitude Azimuth Distance (km) Brightness Sun altitude
Rises 09:25:31 0° 197° (SSW) 3,257 8.5 5.2°
Reaches altitude 10° 09:27:51 10° 194° (SSW) 2,381 7.9 5.6°
Maximum altitude 09:33:17 60° 115° (ESE) 974 6.2 6.4°
Drops below altitude 10° 09:39:11 10° 37° (NE) 2,574 7.7 7.2°
Sets 09:41:47 0° 34° (NE) 3,542 8.4 7.6°
